Location: New Frontier Mobile Home Park
(32.8448°N, 116.9675°W)
Time: 22:47:57
(UTC+00:00)

Cosmos 2181 Rocket - Pass Details

Date: 14 July 2020
Orbit: 951 x 1015 km, 82.9° (Epoch: 05 August)

Event Time Altitude Azimuth Distance (km) Brightness Sun altitude
Rises 04:34:15 0° 354° (N) 3,687 7.8 -17.7°
Reaches altitude 10° 04:36:48 10° 356° (N) 2,727 7.0 -18.1°
Maximum altitude 04:43:03 84° 84° (E) 974 3.9 -19.0°
Enters shadow 04:46:46 26° 171° (S) 1,801 5.0 -19.6°
